User: anonymous   Login
Location: Unspecified
(0.0000°N, 0.0000°E)
Time: 23:00:59
(UTC+00:00)
Language:

Oscar 14 - Orbit

View from above orbital plane
View from above orbital plane
View from above satellite
View from above satellite

Ground track
Ground track

The orbit data is extracted from the following two-line orbital elements,

1 20437U 90005B   18344.45153608 -.00000013  00000-0  11911-4 0  9994
2 20437  98.7295 294.5616 0011216  30.7159  79.2289 14.32305350508687
Epoch (UTC): 10 December 2018 10:50:12
Eccentricity: 0.0011216
inclination: 98.7295°
perigee height: 776 km
apogee height: 792 km
right ascension of ascending node: 294.5616°
argument of perigee: 30.7159°
revolutions per day: 14.32305350
mean anomaly at epoch: 79.2289°
orbit number at epoch: 50868

The dashed part of the orbit path shows where the satellite is in the earth's shadow,  

DLR